This is the latest recevied weather packets stored in our database for station/object W5DNT. If no packets are shown the sender has not sent any weather packets the latest 10 day(s).
| Time | Temp. | Humidity | Pressure | Rain* | Wind** | Luminosity | Snow |
|---|---|---|---|---|---|---|---|
| 1788093970 | - | - | 1015 hPa | 0 mm | - | - | - |
| 1788093082 | - | - | 1014.8 hPa | 0 mm | - | - | - |
| 1788092155 | - | - | 1014.6 hPa | 0 mm | - | - | - |
| 1788091248 | - | - | 1014.4 hPa | 0 mm | - | - | - |
| 1788090359 | 23.89° C | 72% | 1014.3 hPa | 0 mm | - | - | - |
| 1788089444 | 23.89° C | 72% | 1014.2 hPa | 0 mm | - | - | - |
| 1788088543 | 23.89° C | 72% | 1014.2 hPa | 0 mm | - | - | - |
| 1788087643 | 23.89° C | 73% | 1014.1 hPa | 0 mm | - | - | - |
| 1788086748 | 24.44° C | 73% | 1014.2 hPa | 0 mm | - | - | - |
| 1788085900 | 24.44° C | 72% | 1014.1 hPa | 0 mm | - | - | - |
| 1788084941 | 25° C | 73% | 1013.9 hPa | 0 mm | - | - | - |
| 1788084034 | 25.56° C | 71% | 1014 hPa | 0 mm | - | - | - |
| 1788083137 | 25.56° C | 70% | 1014 hPa | 0 mm | - | - | - |
| 1788082230 | 26.11° C | 70% | 1014.1 hPa | 0 mm | - | - | - |
| 1788081330 | 26.11° C | 69% | 1014 hPa | 0 mm | - | - | - |
| 1788080427 | 26.11° C | 69% | 1014.1 hPa | 0 mm | - | - | - |
| 1788079586 | 26.67° C | 67% | 1014 hPa | 0 mm | - | - | - |
| 1788078626 | 26.67° C | 67% | 1014 hPa | 0 mm | - | - | - |
| 1788077740 | 27.22° C | 66% | 1013.9 hPa | 0 mm | - | - | - |
| 1788076825 | 27.78° C | 67% | 1014.2 hPa | 0 mm | - | - | - |
| 1788075932 | 27.78° C | 67% | 1014.2 hPa | 0 mm | - | - | - |
| 1788075027 | 27.78° C | 65% | 1014 hPa | 0 mm | - | - | - |
| 1788074123 | 28.33° C | 66% | 1014.2 hPa | 0 mm | - | - | - |
| 1788073221 | 27.78° C | 65% | 1014.2 hPa | 0 mm | - | - | - |
| 1788072318 | 26.67° C | 68% | 1014.1 hPa | 0 mm | - | - | - |
* Rain latest hour (hover to see other rain measurements)
** Current wind speed in m/s (hover to see current wind gust speed)